SL-16 DEB, 22579

Orbit data source: Space-Track

SL-16 DEB, 22579 is space debris in LEO originally from a launch on Fri, 26 Mar 1993 UTC launched from the Tyuratam Missile And Space Complex (TTMTR). Debris objects in space refer to the collection of defunct objects orbiting the Earth. Examples of debris include non-operational satellites, rocket bodies, and fragments generated from explosions, collisions, or faulty payload assembly.

Loading next visibility...
Identifier
22579, 1993-016G
Orbit
LEO
Country
Flag of CISCIS
Related business
Manufacturer
Unknown
Mission
Spacecraft
Bus & Motor
Unknown
Mass
Unknown
Launch date (UTC)
1993-03-26 (33 years ago)
Launch vehicle
Unknown
Launch site
Tyuratam Missile And Space Complex (TTMTR)
Object type
Payload
Rocket body
Debris
Shape & HBR
Unknown shape, 0.2 m
Radar Cross Section
Medium (>0.1 m² and <1 m²)

Expand to show TLE details & history
Last TLE update: 9 hours ago

TLE from 9 hours ago
0 SL-16 DEB
1 22579U 93016G   26255.28003797  .00000143  00000-0  51658-4 0  9997
2 22579  71.0276 105.2638 0104610 289.3035 183.1092 14.47042847762007
Epoch: 2026-09-12T06:43Z
TLE epoch observation values (Epoch: 2026-09-12T06:43:15.280Z)
Latitude
61.11106°
Longitude
154.8599°
Altitude
819.539 km
Speed
7.41 km/s
True Right ascension
16h 27m 51s
True Declination
60° 57' 60"
Sunlit
Object was in daylight at epoch
Visualization orbit readout
Latitude
Unknown
Longitude
Unknown
Altitude
Unknown
Speed
Unknown
Apparent Right ascension
Unknown
Apparent Declination
Unknown
Sunlit
N/A
Visualization observer readout
Local Sidereal Time
07:39:36
Azimuth
Unknown
Elevation
Unknown
Doppler factor
Unknown
Orbital elements
Apogee altitude
807.606 km
Perigee altitude
658.822 km
Semi-major axis
7,111.351 km
Eccentricity
0.01046
Inclination
71.0276°
RAAN
105.2638°
Arg. of periapsis
289.3035°
True anomaly
183.04502°
Mean anomaly
183.1092°
Eccentric anomaly
183.07703°
Mean motion
3.61922 °/min
Orbital period
99.47 mins
BSTAR
0.000051658
Loading maneuver chart data...
Computing Atmospheric mass density...
Loading historical data...
Loading historical data...
Loading historical data...
Loading historical data...
Loading historical data...
Loading historical data...
Loading historical data...

Documentation

Showing up to 5 results
|